Lid_Strength_Index
4 3 3 3 3 3 3 3 2 2 2 2 2 2 2 2 2 3 5 3 3 -1 1 3 5 5 6 6 5 4 7 9 9 9 8 6 7 5 4 5 4 4 4 3 1
4 3 3 3 4 3 3 3 3 3 2 2 2 2 2 2 3 5 1 -1 -1 -1 6 7 7 6 6 7 6 6 7 9 6 6 8 7 6 6 6 6 6 5 3 2 2
4 4 3 3 3 4 3 3 3 3 2 2 2 3 3 2 5 4 -1 -2 -2 -0 6 6 6 5 7 6 7 6 8 7 7 6 5 6 7 5 6 8 6 6 5 3 3
4 4 4 3 3 4 4 4 3 3 3 3 3 3 3 4 9 4 -3 -2 -1 4 6 6 6 5 6 7 5 8 6 6 6 6 6 7 6 7 6 7 4 4 4 3 4
3 4 4 4 4 4 4 4 4 4 4 3 2 3 4 7 6 1 -2 -1 4 6 6 6 6 5 6 6 6 7 7 6 5 6 6 5 7 7 7 4 3 3 3 4 3
3 3 3 4 4 4 5 5 5 4 4 3 2 2 7 7 4 1 4 4 5 6 5 5 5 3 5 6 7 6 6 6 6 6 6 7 7 6 6 4 5 4 4 4 3
3 3 3 3 4 5 5 5 5 4 4 3 2 4 7 6 3 3 4 5 5 5 5 5 5 5 4 7 5 6 9 7 7 6 7 5 8 9 5 5 5 5 4 4 3
3 3 3 3 3 3 4 5 5 4 4 3 2 4 6 5 4 3 3 3 4 4 4 5 4 4 4 4 5 7 7 10 7 7 6 6 11 7 5 6 6 5 5 4 4
3 3 3 3 3 3 5 5 5 4 4 3 3 5 7 3 5 4 3 5 5 5 5 5 4 4 4 7 8 8 10 10 10 7 7 7 10 7 5 6 6 6 5 5 4
3 3 3 3 3 3 6 6 5 4 3 3 4 6 5 6 4 4 4 5 5 5 4 5 6 6 6 7 10 10 10 10 10 8 8 9 9 7 6 6 6 6 5 5 4
3 3 3 3 3 4 5 6 6 7 7 7 7 6 6 5 4 5 5 4 4 4 6 6 7 8 7 6 7 7 9 11 10 8 9 10 10 8 7 6 7 6 6 5 5
3 3 3 3 3 4 6 6 8 8 9 7 7 6 5 5 6 5 4 5 5 6 6 7 8 7 7 8 7 8 10 11 9 8 9 10 11 8 7 7 6 6 6 5 4
4 4 3 3 4 6 6 6 7 8 9 8 6 6 5 4 6 6 4 5 6 6 7 7 7 7 6 7 9 9 10 11 11 9 8 10 11 10 8 6 6 5 4 4 5
4 4 4 4 5 7 7 6 7 7 9 8 6 5 5 5 6 5 4 4 5 7 7 7 7 7 7 8 7 10 8 9 10 10 13 9 13 10 9 8 7 6 5 5 4
4 4 4 5 5 6 6 6 6 5 13 6 6 4 5 5 5 5 4 4 6 7 7 8 8 8 8 7 7 10 7 9 9 10 11 12 13 11 9 9 8 6 5 5 4
5 4 5 5 6 5 6 5 4 9 13 8 7 7 7 6 6 5 5 4 5 7 7 8 6 7 7 6 7 7 8 9 9 10 13 12 13 12 11 9 7 6 5 5 4
5 5 5 5 5 5 4 4 10 11 8 9 10 8 7 7 7 6 6 7 7 9 9 7 7 6 6 8 6 8 9 13 14 14 14 12 13 11 8 7 6 6 5 4 4
5 6 6 5 4 4 4 7 11 10 9 7 8 10 10 8 8 7 7 8 7 7 9 9 10 8 6 7 8 9 9 11 15 15 13 12 14 10 7 6 5 5 5 4 4
7 5 5 5 4 4 5 10 11 9 7 8 8 10 10 9 8 8 7 7 7 6 8 9 10 6 6 6 6 9 10 8 13 13 14 12 11 8 7 7 6 6 5 5 5
5 4 4 4 5 4 7 11 10 7 7 8 9 9 10 9 9 8 8 7 7 6 5 7 10 7 7 6 7 7 8 10 10 15 16 13 13 12 9 8 7 7 6 5 4
4 6 4 5 5 6 9 10 9 7 7 9 8 8 9 9 9 8 8 7 6 6 5 7 8 9 7 8 8 8 9 9 10 11 13 14 11 8 8 7 7 6 5 5 4
6 7 4 5 7 10 10 9 10 8 7 8 7 7 8 8 9 8 8 7 5 5 7 7 9 11 9 7 6 7 8 9 10 13 12 12 12 7 7 7 6 6 5 4 4
7 8 4 5 9 9 9 9 8 9 9 8 8 6 6 7 8 8 8 5 5 6 7 7 9 12 11 8 7 8 8 8 9 10 13 13 11 7 7 7 6 6 5 5 4
7 8 6 7 8 8 9 9 8 6 7 6 6 6 6 7 7 8 7 6 5 6 5 6 9 10 12 10 8 10 9 8 9 11 11 11 10 8 8 7 6 6 5 5 5
7 7 6 9 8 8 8 9 9 8 7 6 6 6 7 8 8 8 7 7 6 6 6 6 10 9 8 8 8 8 8 8 9 9 10 9 10 8 7 6 6 5 5 5 5
7 6 5 6 6 7 9 8 9 8 8 7 7 6 6 8 7 8 7 7 7 6 7 6 9 9 10 9 9 10 8 8 8 9 9 9 9 6 6 5 6 5 5 5 5
6 5 5 8 7 7 7 7 8 6 5 5 6 6 7 6 5 5 5 5 6 7 7 8 9 10 11 9 9 11 9 9 8 8 8 10 8 6 7 6 6 5 5 5 4